カタログに戻る

COSMOS 1375 DEB

運用中LEO
NORAD 16207·DEBRIS·🇷🇺 Russia

打ち上げ Jun 6, 1982 から Plesetsk Cosmodrome

Loading…

次のパス (今後24時間)

TLE

最新Source: Space-Track

元期: Sep 13, 2026, 22:33 UTC

1 16207U 82055J   26256.93973778 -.00000087  00000-0 -13488-4 0  9995
2 16207  65.8343 181.1083 0076606 156.0655 273.8543 13.57720955 27018

AllMySatでCOSMOS 1375 DEBをリアルタイム追跡

Download on the App Store